Regional Weather Roundup
Issued by NWS Albany, NY

Home | Current Version | Previous Version | Text Only | Print | Product List | Glossary On
Versions: 1 2 3 4 5 6 7 8 9 10 11 12 13 14 15 16 17 18 19 20 21 22 23 24 25 26 27
000
ASUS41 KALY 221110
RWRALY

NEW YORK STATE HOURLY WEATHER ROUNDUP
NATIONAL WEATHER SERVICE ALBANY NY
600 AM EST SUN JAN 22 2017

NOTE: "FAIR" INDICATES FEW OR NO CLOUDS BELOW 12,000 FEET WITH NO
SIGNIFICANT WEATHER AND/OR NO OBSTRUCTIONS TO VISIBILITY.

NYZ032-033-038>043-046>054-057>066-NYZ062>081-082-084-221200-
EAST


CITY           SKY/WX    TMP DP  RH WIND       PRES   REMARKS
ALBANY         FOG       39  36  89 CALM      29.75S VSB 1/2
GLENS FALLS    CLOUDY    38  35  89 N5        29.75S FOG     WCI  34
POUGHKEEPSIE   CLOUDY    39  39 100 CALM      29.73R FOG
NEWBURGH       FOG       39  39 100 CALM      29.73S VSB 1/2
MONTGOMERY     FOG       40  40 100 CALM      29.71S VSB 1/4
WHITE PLAINS   FOG       43  42  97 CALM      29.71R VSB 1/4
ISLIP          FOG       43  43 100 CALM      29.73S VSB 1/8
NEW YORK CITY  CLOUDY    46  43  89 NE6       29.73R FOG
CENTRAL PARK   CLOUDY    43  43 100 CALM      29.75R FOG
$$

NYZ005>009-017-018-044>046-055-056-221200-
CENTRAL


CITY           SKY/WX    TMP DP  RH WIND       PRES   REMARKS
FULTON         FOG       35  34  96 CALM      29.69R VSB 1/4
SYRACUSE       FOG       33  33 100 CALM      29.69R VSB 3/4
ROME           CLOUDY    38  38 100 CALM      29.70S FOG
ELMIRA         FOG       39  37  92 CALM      29.70R VSB 1/4
BINGHAMTON     FOG       39  39 100 S6        29.68S VSB 1/4 WCI  35
MONTICELLO     PTCLDY    36  36 100 N3        29.71F
$$

NYZ026>034-041>043-087-221200-
NORTH


CITY           SKY/WX    TMP DP  RH WIND       PRES   REMARKS
WATERTOWN      CLOUDY    35  35 100 NE9       29.71R FOG     WCI  28
FORT DRUM      NOT AVBL
OGDENSBURG     CLOUDY    37  36  99 N3        29.76R FOG
MASSENA        CLOUDY    34  34 100 NE13      29.79R FOG     WCI  25
SARANAC LAKE   CLOUDY    35  33  92 NE5       29.70S WCI  31
PLATTSBURGH    CLOUDY    35  34  96 N7        29.79R FOG     WCI  29
$$

NYZ001>004-010>016-019>021-085-221200-
WEST


CITY           SKY/WX    TMP DP  RH WIND       PRES   REMARKS
NIAGARA FALLS  CLOUDY    36  34  92 NE3       29.67F FOG
BUFFALO        FOG       37  36  96 NE5       29.66F VSB 3/4 WCI  33
DUNKIRK        CLOUDY    39  38  96 CALM      29.66S
JAMESTOWN        N/A     48  45  87 CALM      29.66S
WELLSVILLE     CLOUDY    45  43  93 CALM      29.69S FOG
ROCHESTER      FOG       40  39  97 NE6       29.69R VSB 1/4
PENN YAN       CLEAR     42  39  89 SW8       29.68R
$$

             KEY
       WCI = WIND CHILL INDEX
       VSB = VISIBILITY
       HX  = HEAT INDEX
$$




USA.gov is the U.S. government's official web portal to all federal, state and local government web resources and services.